User: anonymous   Login
Location: B?jaj?g
(11.7167°N, 92.6667°E)
Time: 04:29:24
(UTC+00:00)
Language:

H-10 deb - Orbit

View from above orbital plane
View from above orbital plane
View from above satellite
View from above satellite

Ground track
Ground track

The orbit data is extracted from the following two-line orbital elements,

1 25279U 89062E   20335.94093224 +.00000291 +00000-0 +37990-3 0  9999
2 25279 007.1179 238.5980 7049396 149.0688 284.7344 02.50151081212821
Epoch (UTC): 30 November 2020 22:34:56
Eccentricity: 0.7049396
inclination: 7.1179°
perigee height: 385 km
apogee height: 32703 km
right ascension of ascending node: 238.5980°
argument of perigee: 149.0688°
revolutions per day: 2.50151081
mean anomaly at epoch: 284.7344°
orbit number at epoch: 21282

The dashed part of the orbit path shows where the satellite is in the earth's shadow,  

DLR